This demonstration page uses our WeatherBlox Daily Observations layout. Learn more.

36.19886, -115.1175

Hourly Observations for May 30, 2018

Temp ( °F °C ) Dew Point ( °F °C ) Humidity (%) Winds ( mph kmh ) Pressure ( in mb ) Visibility ( mi km ) Precip ( " mm )
12:53 am 00:53 Clear 82 27.8 41 5 23 23 WNW 5 7 29.62 1003 10 16.09344 0 0
1:53 am 01:53 Clear 80 26.7 40 4.4 24 24 Calm 29.62 1003 10 16.09344 0 0
2:53 am 02:53 Clear 78 25.6 40 4.4 26 26 N 5 7 29.62 1003 10 16.09344 0 0
3:53 am 03:53 Clear 78 25.6 40 4.4 26 26 Calm 29.62 1003 10 16.09344 0 0
4:53 am 04:53 Clear 75 23.9 39 3.9 27 27 Calm 29.65 1004 10 16.09344 0 0
5:53 am 05:53 Sunny 74 23.3 40 4.4 29 29 NNW 6 9 29.65 1004 10 16.09344 0 0
6:53 am 06:53 Sunny 78 25.6 39 3.9 25 25 NNE 3 6 29.68 1005 10 16.09344 0 0
7:53 am 07:53 Sunny 83 28.3 37 2.8 19 19 ESE 7 11 29.68 1005 10 16.09344 0 0
8:53 am 08:53 Sunny 85 29.4 36 2.2 17 17 SSE 6 9 29.68 1005 10 16.09344 0 0
9:53 am 09:53 Sunny 90 32.2 37 2.8 15 15 undefined N/A 29.65 1004 10 16.09344 0 0
10:53 am 10:53 Sunny 94 34.4 37 2.8 14 14 SE 10 17 29.65 1004 10 16.09344 0 0
11:24 am 11:24 Sunny 96 35.6 32 0 10 10 S 22 35 29.5 999 10 16.09344 0 0
11:53 am 11:53 Sunny 96 35.6 33 0.6 11 11 SSW 16 26 29.65 1004 10 16.09344 0 0
12:53 pm 12:53 Sunny 98 36.7 32 0 10 10 S 13 20 29.62 1003 10 16.09344 0 0
1:53 pm 13:53 Sunny 98 36.7 30 -1.1 9 9 SW 14 22 29.59 1002 10 16.09344 0 0
2:53 pm 14:53 Sunny 99 37.2 28 -2.2 8 8 SW 17 28 29.56 1001 10 16.09344 0 0
3:53 pm 15:53 Sunny 98 36.7 31 -0.6 9 9 SSW 15 24 29.56 1001 10 16.09344 0 0
4:53 pm 16:53 Sunny 98 36.7 32 0 10 10 SW 16 26 29.53 1000 10 16.09344 0 0
5:53 pm 17:53 Sunny 97 36.1 32 0 10 10 SW 18 30 29.53 1000 10 16.09344 0 0
6:53 pm 18:53 Sunny 95 35 31 -0.6 10 10 SSW 23 37 29.53 1000 10 16.09344 0 0
7:53 pm 19:53 Clear 93 33.9 32 0 11 11 SW 14 22 29.56 1001 10 16.09344 0 0
8:53 pm 20:53 Clear 91 32.8 34 1.1 13 13 SSW 16 26 29.56 1001 10 16.09344 0 0
9:53 pm 21:53 Clear 89 31.7 31 -0.6 12 12 SSW 18 30 29.59 1002 10 16.09344 0 0
10:53 pm 22:53 Clear 86 30 33 0.6 15 15 SW 12 19 29.59 1002 10 16.09344 0 0
11:53 pm 23:53 Clear 84 28.9 34 1.1 17 17 SSW 14 22 29.62 1003 10 16.09344 0 0

Powered by AerisWeather